[[{"header":{"parameterUnit":"m.s-1","parameterCategory":1,"la1":30.2991,"la2":30.254,"lo1":-89.0895,"lo2":-89.0444,"dy":0.0017,"dx":0.0017,"nx":28,"ny":28,"refTime":"2023-09-18T21:00:00:Z","depth":0,"parameterNumber":2,"parameterNumberName":"U-component_of_WINDS"},"data":[0,0,0,0,0,0,0,0,0,0,0,0,0,0,0,0,0,0,0,0,0,0,0,0,0,0,0,0,0,0,0,0,0,0,0,0,0,0,0,0,0,0,0,0,0,0,0,0,0,0,0,0,0,0,0,0,0,0,-0.252,-0.2521,0,-0.2565,-0.2566,-0.2566,-0.2584,-0.2584,-0.2583,-0.2583,-0.263,-0.2631,-0.2633,0,0,0,0,0,0,0,0,0,0,0,0,0,-0.2451,-0.2452,-0.252,-0.2521,-0.2521,-0.2565,-0.2566,-0.2567,-0.2584,-0.2584,-0.2583,-0.2583,-0.263,-0.2631,-0.2633,0,0,0,0,0,0,0,0,0,0,0,0,0,-0.2487,-0.2452,-0.252,-0.2535,-0.2537,-0.2565,-0.2566,-0.2567,-0.2584,-0.2584,-0.2583,-0.2583,-0.2629,-0.2631,-0.2633,-0.265,0,0,-0.2639,-0.264,0,0,0,0,0,0,0,0,-0.2485,-0.2489,-0.2532,-0.2534,-0.2536,-0.2569,-0.2559,-0.2595,-0.2584,-0.2566,-0.2583,-0.2583,-0.261,-0.2613,-0.2622,-0.2652,-0.2654,-0.264,-0.2641,-0.2642,-0.2642,0,0,0,0,0,0,0,-0.2482,-0.2488,-0.2538,-0.2533,-0.2535,-0.254,-0.2545,-0.2566,-0.2588,-0.2568,-0.2569,-0.2574,-0.2611,-0.262,-0.2624,-0.2655,-0.264,-0.2641,-0.2643,-0.2643,-0.2703,-0.2703,0,0,0,0,0,0,-0.2477,-0.2485,-0.2537,-0.2539,-0.2509,-0.2542,-0.2547,-0.2558,-0.2588,-0.2593,-0.2574,-0.2575,-0.2617,-0.2621,-0.2625,-0.2648,-0.2642,-0.2644,-0.2645,-0.2703,-0.2703,-0.2703,0,0,0,0,0,0,-0.2476,-0.2481,-0.2535,-0.2513,-0.252,-0.2543,-0.2556,-0.2559,-0.2569,-0.2593,-0.2598,-0.2579,-0.2617,-0.2622,-0.2644,-0.265,-0.2645,-0.2646,-0.2702,-0.2703,-0.2703,-0.2693,0,0,0,0,0,0,-0.2473,-0.2481,-0.2487,-0.2513,-0.2521,-0.2552,-0.2556,-0.256,-0.2572,-0.2574,-0.2599,-0.2604,-0.2617,-0.2641,-0.2646,-0.2653,-0.2648,-0.2702,-0.2703,-0.2703,-0.2693,-0.2694,-0.2694,0,0,0,0,0,-0.2471,-0.2481,-0.2487,-0.2493,-0.2529,-0.2552,-0.2557,-0.2572,-0.2573,-0.2579,-0.2596,-0.2603,-0.2649,-0.2643,-0.2649,-0.2656,-0.2701,-0.2702,-0.2703,-0.2693,-0.2694,-0.2694,0,0,0,0,0,0,-0.2455,-0.2485,-0.2491,-0.251,-0.2529,-0.2555,-0.2564,-0.2572,-0.259,-0.259,-0.2609,-0.2615,-0.2636,-0.2648,-0.2641,-0.2676,-0.2676,-0.2678,-0.2666,-0.2667,-0.2667,-0.2664,-0.265,0,0,0,0,0,-0.2453,-0.247,-0.2495,-0.251,-0.2519,-0.254,-0.2551,-0.2561,-0.2581,-0.2588,-0.2606,-0.2625,-0.2644,-0.2656,-0.2675,-0.2696,-0.2703,-0.2704,-0.2704,-0.2704,-0.2706,-0.272,-0.2721,-0.2706,-0.2706,-0.2706,0,0,-0.2451,-0.2469,-0.2478,-0.2507,-0.2523,-0.254,-0.2546,-0.2563,-0.2577,-0.2591,-0.2613,-0.2627,-0.265,-0.2672,-0.2682,-0.2683,-0.2712,-0.2705,-0.2705,-0.2707,-0.2721,-0.2722,-0.2723,-0.2707,-0.2707,-0.2706,0,0,-0.2455,-0.247,-0.2485,-0.2501,-0.2524,-0.2539,-0.2542,-0.2568,-0.2578,-0.26,-0.2612,-0.2629,-0.2661,-0.2677,-0.269,-0.2703,-0.2711,-0.2709,-0.271,-0.2723,-0.2725,-0.2726,-0.2732,-0.2734,-0.271,-0.271,-0.271,0,-0.2449,-0.2474,-0.2491,-0.2509,-0.2522,-0.2537,-0.2553,-0.2568,-0.2596,-0.2605,-0.2606,-0.2648,-0.2664,-0.2691,-0.2695,-0.2704,-0.271,-0.2706,-0.2723,-0.2724,-0.2726,-0.2732,-0.2734,-0.271,-0.271,-0.271,-0.271,0,-0.2466,-0.2484,-0.2494,-0.2522,-0.2536,-0.2552,-0.2573,-0.2586,-0.2596,-0.2611,-0.2635,-0.2655,-0.2679,-0.2686,-0.2696,-0.2716,-0.2715,-0.2719,-0.272,-0.2727,-0.2733,-0.2735,-0.2709,-0.271,-0.271,-0.271,0,0,-0.2459,-0.2499,-0.2502,-0.2516,-0.2544,-0.2559,-0.2577,-0.2601,-0.2612,-0.2632,-0.2649,-0.2677,-0.2682,-0.2696,-0.2708,-0.272,-0.2731,-0.2723,-0.2723,-0.2724,-0.2756,-0.2753,-0.2755,-0.2737,-0.2738,-0.2738,-0.2755,0,-0.2468,-0.2501,-0.2518,-0.2544,-0.2562,-0.2578,-0.2594,-0.2614,-0.2629,-0.2647,-0.2664,-0.2684,-0.2688,-0.2697,-0.2709,-0.2727,-0.2738,-0.2726,-0.2754,-0.2754,-0.2747,-0.2758,-0.2755,-0.2769,-0.2757,-0.2757,-0.2758,0,-0.2482,-0.2502,-0.253,-0.2559,-0.2567,-0.2581,-0.2606,-0.2623,-0.2647,-0.2657,-0.2674,-0.2687,-0.2708,-0.2708,-0.2738,-0.273,-0.2743,-0.2753,-0.2754,-0.2757,-0.2756,-0.2762,-0.2774,-0.2776,-0.2761,-0.2761,-0.2761,0,-0.2475,-0.251,-0.2532,-0.2543,-0.2577,-0.2587,-0.2601,-0.2625,-0.2639,-0.2661,-0.2671,-0.2695,-0.2708,-0.2727,-0.2747,-0.2744,-0.2776,-0.2777,-0.2786,-0.2785,-0.2791,-0.2791,-0.2806,-0.2799,-0.2799,-0.2799,-0.2799,0,-0.2483,-0.25,-0.253,-0.2543,-0.2563,-0.2584,-0.2603,-0.2619,-0.2641,-0.2658,-0.2674,-0.269,-0.2714,-0.2734,-0.2749,-0.2773,-0.2779,-0.2789,-0.2792,-0.2787,-0.2786,-0.2796,-0.2795,-0.2799,-0.2799,-0.2799,-0.2799,0,-0.2478,-0.2499,-0.2524,-0.2555,-0.2563,-0.2577,-0.2604,-0.2618,-0.2635,-0.2657,-0.2663,-0.269,-0.2714,-0.2735,-0.2767,-0.2778,-0.2803,-0.2807,-0.2795,-0.2797,-0.2805,-0.2804,-0.2827,-0.2832,-0.2821,-0.2821,-0.2821,0,-0.2482,-0.2495,-0.2528,-0.2541,-0.2556,-0.2577,-0.2592,-0.2613,-0.2629,-0.2658,-0.267,-0.2695,-0.2717,-0.2756,-0.2778,-0.2803,-0.2809,-0.2815,-0.2813,-0.2808,-0.281,-0.2809,-0.2811,-0.2815,-0.2815,-0.2815,-0.2815,0,-0.2486,-0.2497,-0.2518,-0.2543,-0.2561,-0.2582,-0.2603,-0.2613,-0.2639,-0.2656,-0.2682,-0.2699,-0.2732,-0.2758,-0.2787,-0.2803,-0.2814,-0.2816,-0.282,-0.2814,-0.2807,-0.2812,-0.2796,-0.2815,-0.2815,-0.2815,-0.2815,-0.2815,-0.2487,-0.25,-0.2526,-0.255,-0.2568,-0.2589,-0.2604,-0.2624,-0.2645,-0.2675,-0.2687,-0.2713,-0.2739,-0.2778,-0.2795,-0.2817,-0.2818,-0.2823,-0.2825,-0.2826,-0.2825,-0.2804,-0.2822,-0.2822,-0.2822,-0.2822,-0.2822,0,-0.2492,-0.2511,-0.2532,-0.2562,-0.2582,-0.2591,-0.2616,-0.2631,-0.2655,-0.2678,-0.27,-0.273,-0.2756,-0.2782,-0.2809,-0.2822,-0.2828,-0.2829,-0.2828,-0.2832,-0.2822,-0.2816,-0.2824,-0.2824,-0.2824,-0.2824,-0.2824,-0.2823,-0.2498,-0.2522,-0.2536,-0.257,-0.2588,-0.2614,-0.2628,-0.2648,-0.2667,-0.27,-0.2722,-0.2739,-0.2763,-0.2793,-0.2818,-0.2825,-0.2835,-0.2834,-0.2843,-0.2833,-0.2832,-0.2832,-0.2827,-0.2836,-0.2836,-0.2851,-0.2851,-0.2851]},{"header":{"parameterUnit":"m.s-1","parameterCategory":1,"la1":30.2991,"la2":30.254,"lo1":-89.0895,"lo2":-89.0444,"dy":0.0017,"dx":0.0017,"nx":28,"ny":28,"refTime":"2023-09-18T21:00:00:Z","depth":0,"parameterNumber":3,"parameterNumberName":"V-component_of_WINDS"},"data":[0,0,0,0,0,0,0,0,0,0,0,0,0,0,0,0,0,0,0,0,0,0,0,0,0,0,0,0,0,0,0,0,0,0,0,0,0,0,0,0,0,0,0,0,0,0,0,0,0,0,0,0,0,0,0,0,0,0,2.5665,2.5664,0,2.5538,2.5537,2.5535,2.5438,2.5437,2.5436,2.5435,2.5297,2.5294,2.5291,0,0,0,0,0,0,0,0,0,0,0,0,0,2.5815,2.5813,2.5665,2.5664,2.5662,2.5538,2.5536,2.5535,2.5438,2.5437,2.5436,2.5435,2.5298,2.5294,2.5291,0,0,0,0,0,0,0,0,0,0,0,0,0,2.5725,2.5812,2.5665,2.5599,2.5592,2.5539,2.5536,2.5534,2.5438,2.5437,2.5435,2.5434,2.5299,2.5295,2.5291,2.5291,0,0,2.5277,2.5276,0,0,0,0,0,0,0,0,2.573,2.5719,2.561,2.5603,2.5595,2.5502,2.5538,2.5452,2.5438,2.5496,2.5435,2.5433,2.5366,2.5356,2.5335,2.5285,2.5279,2.5277,2.5275,2.5273,2.5271,0,0,0,0,0,0,0,2.5736,2.5724,2.5614,2.5609,2.5599,2.5572,2.5558,2.5522,2.544,2.5491,2.5484,2.547,2.5361,2.5339,2.5331,2.5277,2.5277,2.5273,2.5271,2.5269,2.5216,2.5217,0,0,0,0,0,0,2.5754,2.573,2.5619,2.5611,2.5661,2.5571,2.5555,2.5533,2.544,2.5425,2.5472,2.5466,2.5347,2.5336,2.5326,2.5317,2.5273,2.5269,2.5266,2.5215,2.5216,2.5218,0,0,0,0,0,0,2.5758,2.5745,2.5624,2.5668,2.5651,2.557,2.5546,2.5532,2.5509,2.5425,2.5409,2.5465,2.5346,2.5332,2.53,2.5311,2.5267,2.5263,2.5214,2.5215,2.5217,2.5303,0,0,0,0,0,0,2.5763,2.5747,2.5749,2.5669,2.5649,2.5604,2.5547,2.553,2.5503,2.5495,2.5415,2.54,2.5343,2.5307,2.5296,2.5305,2.526,2.5212,2.5214,2.5216,2.5299,2.5308,2.5315,0,0,0,0,0,2.5768,2.5777,2.5749,2.5736,2.565,2.5604,2.5592,2.553,2.5505,2.5504,2.5449,2.5402,2.5313,2.5305,2.5291,2.5299,2.5211,2.5214,2.5216,2.5295,2.5306,2.5315,0,0,0,0,0,0,2.5858,2.5766,2.5734,2.5718,2.567,2.5588,2.5586,2.5543,2.55,2.5494,2.5415,2.5397,2.5374,2.5333,2.5326,2.5292,2.5255,2.5255,2.532,2.5329,2.5338,2.5347,2.5256,0,0,0,0,0,2.5876,2.585,2.5769,2.5763,2.5741,2.5668,2.5645,2.5601,2.5547,2.5526,2.5469,2.5416,2.5375,2.535,2.5309,2.5293,2.5272,2.5291,2.5299,2.5306,2.5307,2.5292,2.5299,2.5226,2.5226,2.5226,0,0,2.5913,2.5859,2.5847,2.5779,2.5737,2.5708,2.5651,2.5624,2.56,2.5521,2.5488,2.5444,2.5379,2.5355,2.5342,2.5321,2.5322,2.531,2.5316,2.5312,2.5295,2.5302,2.5308,2.5228,2.5227,2.5227,0,0,2.5965,2.5923,2.5912,2.5871,2.5808,2.5759,2.5757,2.5681,2.5649,2.5616,2.5554,2.5524,2.5457,2.5412,2.5381,2.5415,2.5368,2.5403,2.5445,2.5431,2.5437,2.5441,2.545,2.5455,2.5404,2.5404,2.5404,0,2.6018,2.5975,2.5911,2.5887,2.5857,2.5786,2.5772,2.5734,2.566,2.564,2.5619,2.5531,2.5483,2.5446,2.5454,2.5432,2.5423,2.5411,2.5442,2.5446,2.5449,2.5457,2.5461,2.5409,2.5408,2.5408,2.5407,0,2.6041,2.6012,2.601,2.5943,2.5913,2.5894,2.5824,2.5801,2.5759,2.5712,2.5676,2.5616,2.5559,2.5547,2.5505,2.5503,2.5492,2.5457,2.5418,2.5461,2.5467,2.547,2.5415,2.5413,2.5412,2.5411,0,0,2.6146,2.6043,2.6043,2.6011,2.5936,2.591,2.5887,2.5834,2.5814,2.5765,2.5741,2.5685,2.5652,2.5616,2.5568,2.5557,2.5584,2.5523,2.552,2.5534,2.5573,2.5599,2.5604,2.5553,2.5553,2.5554,2.5578,0,2.6185,2.6142,2.6082,2.6057,2.6027,2.5959,2.5937,2.5887,2.5842,2.5807,2.5755,2.5716,2.5677,2.5654,2.564,2.5584,2.559,2.5581,2.5526,2.5525,2.5543,2.5607,2.5634,2.566,2.558,2.5581,2.5581,0,2.6224,2.618,2.6153,2.6079,2.6064,2.6047,2.5992,2.5961,2.5901,2.5868,2.5829,2.5777,2.5744,2.5711,2.5663,2.5658,2.5632,2.56,2.56,2.5591,2.5555,2.5597,2.5667,2.5671,2.5584,2.5584,2.5584,0,2.63,2.6235,2.6209,2.6184,2.6097,2.6085,2.6048,2.5987,2.5958,2.5909,2.5889,2.5837,2.5807,2.5766,2.57,2.5682,2.5658,2.5619,2.5626,2.5628,2.5623,2.5624,2.5688,2.561,2.561,2.561,2.561,0,2.6348,2.6334,2.6242,2.6226,2.6207,2.6137,2.6119,2.6074,2.6021,2.5992,2.5929,2.5903,2.5819,2.5782,2.5729,2.5696,2.5683,2.5653,2.5639,2.5658,2.5662,2.5638,2.5634,2.5611,2.5611,2.5611,2.561,0,2.643,2.6369,2.6336,2.6256,2.6236,2.6225,2.6155,2.6135,2.6085,2.605,2.6038,2.5959,2.5912,2.5843,2.5774,2.5739,2.5712,2.5691,2.5734,2.5725,2.5735,2.5734,2.5784,2.5786,2.571,2.5711,2.5712,0,2.6464,2.6451,2.6371,2.6349,2.6314,2.6279,2.6249,2.6179,2.6151,2.6081,2.6068,2.6017,2.5972,2.5899,2.5834,2.578,2.5755,2.5776,2.5747,2.5765,2.5752,2.5753,2.575,2.5783,2.5784,2.5785,2.5786,0,2.653,2.65,2.6461,2.6412,2.6379,2.6336,2.6289,2.6273,2.6192,2.6163,2.6115,2.6081,2.6011,2.5959,2.5897,2.5854,2.5805,2.5796,2.5795,2.5813,2.5837,2.5821,2.5751,2.5795,2.5794,2.5794,2.5793,2.5793,2.6587,2.6571,2.6512,2.647,2.6428,2.6386,2.6363,2.6311,2.6271,2.6211,2.6171,2.6125,2.6062,2.5973,2.5932,2.5893,2.5872,2.5871,2.587,2.587,2.5876,2.5845,2.5881,2.5881,2.588,2.588,2.588,0,2.6647,2.6606,2.6569,2.6506,2.6472,2.6433,2.6378,2.6352,2.6313,2.626,2.6217,2.6161,2.611,2.6041,2.5984,2.5965,2.5941,2.5952,2.5951,2.5942,2.5898,2.5904,2.5972,2.5972,2.5972,2.5972,2.5972,2.5972,2.6675,2.6646,2.6609,2.6557,2.6514,2.6471,2.6443,2.6402,2.6359,2.63,2.6258,2.6214,2.6153,2.6091,2.6041,2.6021,2.6002,2.602,2.5993,2.5954,2.5945,2.5937,2.5942,2.6017,2.6017,2.6039,2.604,2.604]}]]